Location: Poigny-la-Forêt
(48.6876°N, 1.7701°E)
Time: 17:58:38
(UTC+02:00)

Envisat - Visible Passes

Search period start: 15 October 2019 00:00
Search period end: 25 October 2019 00:00
Orbit: 764 x 766 km, 98.1° (Epoch: 15 October)

Date Brightness Start Highest point End Pass type
(mag) Time Alt. Az. Time Alt. Az. Time Alt. Az.
15 Oct 5.3 20:58:25 10° SSW 21:02:32 25° W 21:06:41 10° NW visible
16 Oct 6.4 07:25:02 10° ENE 07:27:19 13° E 07:29:36 10° ESE visible
16 Oct 4.0 20:20:36 10° S 20:25:30 49° W 20:30:28 10° NNW visible
17 Oct 3.0 19:43:36 10° SSE 19:48:40 82° ENE 19:53:47 10° NNW visible
17 Oct 6.0 21:25:30 10° WSW 21:28:21 15° W 21:31:14 10° NW visible
18 Oct 5.0 20:46:44 10° SSW 20:51:10 30° W 20:55:39 10° NNW visible
19 Oct 6.7 07:15:30 10° E 07:15:52 10° E 07:16:14 10° E visible
19 Oct 3.6 20:09:11 10° S 20:14:12 61° W 20:19:16 10° NNW visible
20 Oct 3.0 19:32:24 10° SSE 19:37:26 67° ENE 19:42:30 10° N visible
20 Oct 5.7 21:13:27 10° SW 21:16:57 19° W 21:20:28 10° NW visible
21 Oct 6.1 07:38:23 10° NE 07:41:46 18° E 07:45:07 10° SE visible
21 Oct 4.6 20:35:09 10° SSW 20:39:50 37° W 20:44:33 10° NNW visible
22 Oct 3.2 19:57:51 10° S 20:02:55 76° WSW 20:08:02 10° NNW visible
22 Oct 6.2 21:41:35 10° W 21:42:49 11° W 21:44:04 10° WNW visible
23 Oct 3.1 19:21:16 10° SE 19:26:12 54° ENE 19:31:10 10° N visible
23 Oct 5.4 21:01:35 10° SW 21:05:33 23° W 21:09:33 10° NW visible
24 Oct 6.3 07:27:42 10° NE 07:30:21 14° E 07:33:00 10° ESE visible
24 Oct 4.1 20:23:38 10° S 20:28:30 45° W 20:33:24 10° NNW visible
